sat.trackr.live / text

‹ back to catalog

STARLINK-2634

NORAD 48445 · 2021-040T

PAYLOAD ACTIVE UNKNOWN

§ Identity

Operator
Country
US
Launch date
2021-05-09
Launch site
AFETR
Launch vehicle
Mass (kg)
RCS (m²)

Purposes: comms

External: N2YO · Heavens-Above · Gunter

§ Orbital elements

Epoch: 2026-09-12T17:52:49.993248Z

Period
94.01 min
Inclination
53.1605°
Eccentricity
0.0001341
Mean motion
15.31700315 rev/d
Perigee alt
469.8 km
Apogee alt
471.7 km
Semi-major
6,848.9 km
B*
1.2791e-4
RAAN
27.6072°
Arg perigee
76.7063°
Mean anomaly
283.4088°
Rev number
29,534

§ Raw data

STARLINK-26341 48445U 21040T   26255.74502307  .00003606  00000+0  12791-3 0  99972 48445  53.1605  27.6072 0001341  76.7063 283.4088 15.31700315295341

JSON: /api/v1/satellites/48445 · /tle

For live sub-satellite position, see the globe view (requires WebGL).

§ Visibility from observer

Set your observer location to see the next 7 days of passes ≥ 10°. The values pass through the URL so the page stays shareable.

No JS? Fill the form by hand. The geolocation button needs JavaScript.